Location: Grand Moustoir
(47.8355°N, 3.3120°W)
Time: 20:20:17
(UTC+00:00)

Lacrosse 5 rocket - Pass Details

Date: 20 January 2020
Orbit: 465 x 632 km, 57.0° (Epoch: 16 February)

Event Time Altitude Azimuth Distance (km) Brightness Sun altitude
Exits shadow 05:00:20 27° 27° (NNE) 1,222 3.2 -28.8°
Drops below altitude 10° 05:02:41 10° 47° (NE) 1,989 4.7 -28.4°
Sets 05:05:04 0° 55° (NE) 2,878 5.8 -28.0°
